QPF
0.00 0.00 0.00 0.00 0.01 0.01 0.01 0.01 0.01 0.01 0.02 0.05 0.03 0.01 0.02 0.04 0.03 0.02 0.01 0.00 0.00 0.00 0.00 0.01 0.01 0.01 0.00 0.00 0.00 0.00 0.00 0.00 0.00 0.00 0.01 0.00 0.00 0.00 0.00 0.01 0.01 0.01 0.01 0.02 0.02 0.01 0.01 0.01 0.01
0.00 0.00 0.00 0.01 0.00 0.00 0.00 0.01 0.01 0.01 0.02 0.02 0.02 0.01 0.01 0.01 0.01 0.00 0.00 0.00 0.00 0.01 0.00 0.00 0.01 0.01 0.00 0.00 0.00 0.00 0.00 0.00 0.00 0.00 0.00 0.00 0.00 0.00 0.00 0.00 0.00 0.01 0.01 0.01 0.01 0.00 0.00 0.00 0.01
0.00 0.00 0.00 0.01 0.01 0.00 0.00 0.00 0.01 0.01 0.01 0.02 0.04 0.02 0.01 0.01 0.00 0.00 0.00 0.00 0.01 0.02 0.02 0.02 0.01 0.01 0.01 0.00 0.00 0.00 0.00 0.00 0.00 0.00 0.00 0.00 0.00 0.00 0.00 0.00 0.00 0.01 0.01 0.00 0.00 0.00 0.00 0.00 0.01
0.00 0.00 0.00 0.00 0.00 0.00 0.00 0.00 0.01 0.01 0.01 0.01 0.02 0.02 0.01 0.01 0.00 0.00 0.01 0.01 0.03 0.02 0.02 0.02 0.02 0.02 0.01 0.00 0.00 0.00 0.00 0.00 0.00 0.00 0.00 0.00 0.00 0.00 0.00 0.00 0.00 0.01 0.01 0.00 0.00 0.00 0.00 0.01 0.01
0.00 0.00 0.00 0.00 0.00 0.00 0.00 0.00 0.00 0.00 0.01 0.01 0.01 0.01 0.02 0.01 0.01 0.01 0.02 0.03 0.05 0.04 0.03 0.03 0.03 0.02 0.01 0.00 0.01 0.01 0.00 0.00 0.00 0.00 0.00 0.00 0.00 0.00 0.00 0.00 0.01 0.01 0.01 0.00 0.00 0.00 0.00 0.01 0.01
0.00 0.00 0.00 0.00 0.00 0.00 0.00 0.00 0.00 0.00 0.01 0.01 0.01 0.02 0.03 0.03 0.03 0.04 0.05 0.06 0.11 0.09 0.05 0.05 0.05 0.03 0.02 0.01 0.01 0.01 0.01 0.01 0.00 0.00 0.00 0.00 0.00 0.00 0.00 0.01 0.01 0.00 0.00 0.00 0.00 0.01 0.00 0.01 0.01
0.00 0.00 0.00 0.00 0.00 0.00 0.00 0.00 0.00 0.01 0.01 0.01 0.01 0.01 0.03 0.05 0.05 0.08 0.11 0.15 0.14 0.14 0.09 0.08 0.06 0.04 0.04 0.02 0.01 0.01 0.01 0.01 0.00 0.00 0.00 0.00 0.00 0.00 0.00 0.01 0.00 0.00 0.00 0.00 0.00 0.00 0.00 0.00 0.01
0.00 0.00 0.00 0.00 0.00 0.00 0.00 0.00 0.00 0.00 0.01 0.01 0.01 0.01 0.02 0.04 0.09 0.19 0.20 0.19 0.15 0.14 0.13 0.12 0.10 0.07 0.04 0.03 0.02 0.01 0.02 0.02 0.01 0.01 0.00 0.00 0.01 0.00 0.00 0.00 0.01 0.00 0.00 0.00 0.00 0.00 0.00 0.01 0.01
0.00 0.00 0.00 0.00 0.00 0.00 0.00 0.00 0.00 0.00 0.00 0.01 0.01 0.01 0.02 0.03 0.08 0.18 0.23 0.20 0.19 0.15 0.12 0.13 0.12 0.09 0.07 0.05 0.03 0.02 0.02 0.02 0.02 0.01 0.01 0.01 0.01 0.00 0.00 0.00 0.01 0.01 0.00 0.00 0.00 0.01 0.01 0.01 0.02
0.00 0.00 0.00 0.00 0.00 0.00 0.00 0.00 0.00 0.01 0.03 0.01 0.01 0.01 0.02 0.04 0.08 0.11 0.13 0.12 0.19 0.18 0.11 0.11 0.10 0.10 0.10 0.12 0.07 0.03 0.02 0.02 0.02 0.02 0.01 0.01 0.01 0.01 0.01 0.01 0.01 0.01 0.01 0.01 0.01 0.01 0.02 0.01 0.01
0.00 0.00 0.00 0.00 0.00 0.00 0.00 0.00 0.00 0.00 0.01 0.00 0.00 0.01 0.01 0.04 0.08 0.10 0.09 0.08 0.14 0.22 0.11 0.09 0.08 0.09 0.09 0.14 0.13 0.04 0.02 0.01 0.01 0.01 0.01 0.02 0.02 0.02 0.02 0.02 0.03 0.03 0.03 0.02 0.01 0.01 0.01 0.01 0.01
0.00 0.00 0.00 0.00 0.00 0.00 0.00 0.00 0.00 0.00 0.00 0.00 0.00 0.01 0.02 0.06 0.09 0.10 0.10 0.09 0.10 0.19 0.14 0.09 0.07 0.06 0.07 0.09 0.12 0.06 0.03 0.02 0.01 0.01 0.02 0.02 0.02 0.02 0.02 0.03 0.02 0.02 0.03 0.03 0.02 0.01 0.01 0.02 0.02
0.00 0.00 0.00 0.00 0.00 0.00 0.00 0.00 0.00 0.00 0.00 0.00 0.00 0.01 0.03 0.06 0.10 0.12 0.12 0.11 0.12 0.16 0.18 0.14 0.09 0.08 0.09 0.09 0.10 0.07 0.05 0.03 0.02 0.02 0.02 0.03 0.02 0.04 0.04 0.04 0.03 0.02 0.02 0.03 0.02 0.01 0.02 0.03 0.03
0.00 0.00 0.00 0.00 0.00 0.00 0.00 0.00 0.00 0.00 0.00 0.00 0.01 0.02 0.04 0.06 0.09 0.13 0.13 0.11 0.13 0.16 0.17 0.16 0.12 0.11 0.12 0.11 0.09 0.06 0.04 0.03 0.02 0.03 0.03 0.03 0.02 0.04 0.05 0.04 0.04 0.03 0.02 0.03 0.02 0.02 0.02 0.02 0.02
0.00 0.00 0.00 0.00 0.01 0.00 0.00 0.00 0.00 0.00 0.00 0.01 0.02 0.02 0.03 0.06 0.09 0.14 0.15 0.12 0.14 0.19 0.19 0.16 0.16 0.16 0.17 0.13 0.10 0.08 0.05 0.05 0.04 0.02 0.02 0.02 0.03 0.05 0.05 0.04 0.04 0.03 0.02 0.02 0.03 0.02 0.02 0.02 0.01
0.00 0.00 0.00 0.00 0.01 0.01 0.01 0.00 0.00 0.00 0.00 0.02 0.03 0.02 0.03 0.06 0.11 0.19 0.22 0.19 0.22 0.20 0.20 0.21 0.20 0.17 0.16 0.14 0.12 0.11 0.09 0.07 0.06 0.04 0.03 0.04 0.04 0.04 0.03 0.03 0.03 0.02 0.01 0.02 0.02 0.03 0.03 0.02 0.01
0.00 0.00 0.00 0.00 0.01 0.01 0.01 0.00 0.01 0.01 0.01 0.02 0.02 0.03 0.03 0.07 0.12 0.23 0.25 0.23 0.26 0.30 0.25 0.21 0.22 0.20 0.21 0.19 0.16 0.16 0.14 0.11 0.09 0.08 0.07 0.06 0.04 0.03 0.03 0.02 0.02 0.02 0.03 0.03 0.02 0.02 0.02 0.02 0.02
0.00 0.00 0.00 0.00 0.00 0.00 0.00 0.01 0.01 0.01 0.01 0.02 0.03 0.03 0.03 0.05 0.09 0.18 0.20 0.21 0.26 0.32 0.34 0.27 0.25 0.25 0.25 0.25 0.24 0.23 0.19 0.14 0.14 0.13 0.10 0.07 0.06 0.05 0.04 0.03 0.03 0.03 0.03 0.02 0.02 0.01 0.02 0.02 0.03
0.00 0.00 0.00 0.00 0.00 0.00 0.00 0.01 0.01 0.01 0.02 0.04 0.03 0.04 0.05 0.05 0.09 0.18 0.19 0.20 0.23 0.27 0.26 0.30 0.26 0.23 0.21 0.20 0.19 0.20 0.18 0.13 0.12 0.12 0.10 0.06 0.05 0.05 0.04 0.03 0.03 0.03 0.03 0.02 0.02 0.02 0.01 0.02 0.02
0.00 0.00 0.00 0.00 0.00 0.00 0.00 0.00 0.01 0.02 0.03 0.03 0.03 0.03 0.03 0.04 0.09 0.16 0.20 0.23 0.20 0.21 0.21 0.29 0.28 0.22 0.20 0.17 0.15 0.16 0.18 0.15 0.12 0.10 0.07 0.06 0.04 0.04 0.03 0.02 0.02 0.01 0.02 0.01 0.01 0.02 0.01 0.01 0.01
0.00 0.00 0.00 0.00 0.00 0.00 0.00 0.00 0.01 0.01 0.02 0.03 0.03 0.02 0.02 0.03 0.06 0.08 0.14 0.22 0.21 0.17 0.19 0.24 0.26 0.25 0.23 0.20 0.17 0.15 0.16 0.12 0.10 0.08 0.07 0.05 0.03 0.03 0.03 0.02 0.02 0.01 0.01 0.01 0.01 0.01 0.01 0.01 0.01
0.00 0.00 0.00 0.00 0.00 0.00 0.00 0.00 0.00 0.00 0.01 0.02 0.03 0.02 0.02 0.02 0.03 0.04 0.07 0.17 0.19 0.14 0.17 0.21 0.21 0.24 0.23 0.21 0.16 0.10 0.08 0.06 0.05 0.04 0.05 0.05 0.03 0.02 0.02 0.02 0.02 0.01 0.00 0.00 0.01 0.01 0.01 0.01 0.02
0.00 0.00 0.00 0.00 0.00 0.00 0.00 0.00 0.00 0.00 0.01 0.01 0.02 0.02 0.02 0.02 0.03 0.04 0.05 0.08 0.09 0.08 0.10 0.14 0.15 0.18 0.17 0.15 0.11 0.07 0.06 0.06 0.05 0.03 0.03 0.03 0.03 0.02 0.01 0.01 0.01 0.01 0.01 0.00 0.01 0.01 0.02 0.01 0.01
0.00 0.00 0.00 0.00 0.01 0.00 0.00 0.00 0.00 0.00 0.00 0.01 0.00 0.01 0.01 0.02 0.03 0.04 0.06 0.05 0.05 0.05 0.06 0.08 0.10 0.11 0.13 0.11 0.09 0.06 0.04 0.05 0.04 0.03 0.02 0.02 0.02 0.01 0.01 0.01 0.01 0.02 0.01 0.00 0.00 0.00 0.01 0.01 0.00
0.00 0.00 0.00 0.00 0.00 0.00 0.00 0.00 0.00 0.00 0.00 0.00 0.00 0.01 0.01 0.02 0.02 0.03 0.03 0.03 0.03 0.03 0.04 0.05 0.07 0.08 0.10 0.10 0.08 0.07 0.06 0.04 0.03 0.03 0.03 0.02 0.02 0.01 0.01 0.01 0.01 0.01 0.01 0.00 0.00 0.00 0.00 0.00 0.00
0.00 0.00 0.00 0.00 0.00 0.00 0.00 0.00 0.00 0.00 0.00 0.00 0.00 0.00 0.01 0.01 0.03 0.03 0.02 0.02 0.02 0.02 0.02 0.03 0.05 0.06 0.06 0.07 0.06 0.06 0.06 0.07 0.05 0.03 0.03 0.02 0.01 0.01 0.01 0.01 0.01 0.00 0.00 0.00 0.00 0.00 0.00 0.00 0.00
0.00 0.00 0.00 0.00 0.00 0.00 0.00 0.00 0.00 0.00 0.00 0.00 0.01 0.00 0.01 0.01 0.02 0.02 0.02 0.02 0.02 0.02 0.02 0.02 0.04 0.04 0.04 0.05 0.04 0.05 0.04 0.05 0.04 0.02 0.02 0.01 0.01 0.01 0.00 0.01 0.00 0.00 0.00 0.00 0.00 0.00 0.00 0.00 0.00
0.01 0.01 0.00 0.01 0.01 0.00 0.00 0.00 0.00 0.00 0.00 0.00 0.01 0.01 0.01 0.01 0.01 0.02 0.02 0.02 0.02 0.02 0.03 0.04 0.05 0.04 0.03 0.04 0.03 0.02 0.03 0.03 0.03 0.02 0.01 0.01 0.00 0.00 0.00 0.00 0.00 0.00 0.00 0.00 0.00 0.00 0.00 0.00 0.00
0.01 0.01 0.00 0.01 0.01 0.01 0.00 0.00 0.00 0.00 0.00 0.00 0.00 0.01 0.01 0.01 0.01 0.01 0.02 0.02 0.02 0.02 0.03 0.04 0.05 0.05 0.03 0.02 0.02 0.01 0.02 0.02 0.02 0.01 0.01 0.01 0.00 0.00 0.00 0.00 0.00 0.00 0.00 0.00 0.00 0.00 0.00 0.00 0.00
0.00 0.00 0.01 0.01 0.01 0.01 0.00 0.00 0.00 0.00 0.00 0.00 0.00 0.01 0.01 0.02 0.01 0.01 0.01 0.02 0.02 0.03 0.04 0.03 0.03 0.03 0.03 0.02 0.02 0.02 0.01 0.01 0.01 0.01 0.01 0.01 0.01 0.01 0.00 0.00 0.00 0.00 0.00 0.00 0.00 0.00 0.00 0.00 0.00
MSLP
1008.52 1009.51 1010.61 1011.64 1012.44 1012.92 1013.04 1012.84 1012.44 1011.97 1011.55 1011.26 1011.14 1011.14 1011.22 1011.27 1011.24 1011.09 1010.84 1010.54 1010.29 1010.15 1010.19 1010.42 1010.81 1011.29 1011.79 1012.23 1012.57 1012.81 1012.96 1013.07 1013.19 1013.36 1013.59 1013.87 1014.16 1014.42 1014.63 1014.75 1014.79 1014.77 1014.72 1014.67 1014.65 1014.68 1014.75 1014.86 1014.99
1008.97 1010.09 1011.23 1012.20 1012.86 1013.13 1012.99 1012.54 1011.89 1011.20 1010.62 1010.22 1010.04 1010.02 1010.11 1010.21 1010.24 1010.17 1010.02 1009.85 1009.73 1009.72 1009.89 1010.22 1010.70 1011.25 1011.79 1012.27 1012.65 1012.93 1013.12 1013.28 1013.44 1013.65 1013.90 1014.18 1014.46 1014.71 1014.88 1014.96 1014.98 1014.94 1014.88 1014.83 1014.82 1014.86 1014.93 1015.04 1015.16
1009.56 1010.75 1011.86 1012.71 1013.17 1013.19 1012.80 1012.11 1011.25 1010.41 1009.73 1009.28 1009.07 1009.07 1009.20 1009.35 1009.45 1009.47 1009.42 1009.36 1009.35 1009.47 1009.73 1010.16 1010.70 1011.29 1011.87 1012.38 1012.78 1013.08 1013.30 1013.50 1013.69 1013.92 1014.19 1014.46 1014.72 1014.93 1015.07 1015.13 1015.12 1015.07 1015.02 1015.00 1015.00 1015.05 1015.14 1015.24 1015.36
1010.26 1011.43 1012.44 1013.11 1013.35 1013.13 1012.51 1011.62 1010.63 1009.71 1009.00 1008.55 1008.38 1008.43 1008.60 1008.80 1008.97 1009.06 1009.10 1009.13 1009.22 1009.42 1009.77 1010.25 1010.83 1011.45 1012.03 1012.54 1012.94 1013.25 1013.49 1013.71 1013.93 1014.18 1014.44 1014.71 1014.94 1015.12 1015.23 1015.27 1015.25 1015.22 1015.19 1015.19 1015.23 1015.30 1015.40 1015.50 1015.61
1010.97 1012.06 1012.90 1013.35 1013.36 1012.92 1012.13 1011.13 1010.09 1009.18 1008.51 1008.13 1008.03 1008.14 1008.36 1008.61 1008.82 1008.96 1009.05 1009.15 1009.31 1009.58 1009.98 1010.49 1011.08 1011.69 1012.26 1012.74 1013.12 1013.42 1013.67 1013.90 1014.14 1014.39 1014.67 1014.92 1015.15 1015.31 1015.40 1015.43 1015.42 1015.40 1015.40 1015.43 1015.50 1015.60 1015.71 1015.82 1015.92
1011.58 1012.52 1013.15 1013.38 1013.17 1012.56 1011.67 1010.65 1009.65 1008.83 1008.27 1008.00 1007.99 1008.17 1008.44 1008.71 1008.93 1009.09 1009.21 1009.35 1009.55 1009.86 1010.29 1010.81 1011.39 1011.97 1012.49 1012.93 1013.28 1013.57 1013.81 1014.05 1014.31 1014.58 1014.87 1015.14 1015.36 1015.51 1015.60 1015.63 1015.63 1015.63 1015.66 1015.72 1015.82 1015.94 1016.06 1016.17 1016.27
1012.00 1012.74 1013.14 1013.14 1012.75 1012.04 1011.13 1010.16 1009.28 1008.61 1008.22 1008.09 1008.18 1008.42 1008.70 1008.97 1009.18 1009.33 1009.46 1009.61 1009.84 1010.17 1010.60 1011.12 1011.67 1012.21 1012.68 1013.08 1013.39 1013.66 1013.90 1014.16 1014.45 1014.76 1015.07 1015.37 1015.60 1015.77 1015.86 1015.90 1015.91 1015.92 1015.96 1016.04 1016.15 1016.28 1016.41 1016.51 1016.61
1012.16 1012.67 1012.84 1012.64 1012.12 1011.35 1010.48 1009.63 1008.93 1008.45 1008.24 1008.25 1008.44 1008.72 1009.00 1009.25 1009.42 1009.54 1009.66 1009.82 1010.06 1010.40 1010.85 1011.35 1011.88 1012.38 1012.81 1013.16 1013.45 1013.70 1013.96 1014.24 1014.57 1014.93 1015.29 1015.62 1015.89 1016.07 1016.18 1016.22 1016.24 1016.25 1016.29 1016.37 1016.48 1016.60 1016.72 1016.82 1016.91
1012.04 1012.33 1012.28 1011.91 1011.30 1010.54 1009.75 1009.06 1008.55 1008.27 1008.23 1008.37 1008.63 1008.93 1009.20 1009.40 1009.54 1009.63 1009.73 1009.89 1010.15 1010.51 1010.97 1011.48 1011.99 1012.45 1012.85 1013.18 1013.45 1013.71 1013.99 1014.31 1014.69 1015.10 1015.51 1015.89 1016.20 1016.41 1016.53 1016.58 1016.59 1016.60 1016.63 1016.69 1016.78 1016.89 1016.99 1017.08 1017.15
1011.71 1011.78 1011.54 1011.04 1010.38 1009.65 1008.97 1008.44 1008.11 1008.02 1008.12 1008.36 1008.66 1008.96 1009.20 1009.36 1009.46 1009.54 1009.64 1009.82 1010.10 1010.49 1010.97 1011.49 1012.00 1012.45 1012.84 1013.16 1013.44 1013.71 1014.02 1014.39 1014.81 1015.27 1015.74 1016.16 1016.50 1016.74 1016.88 1016.93 1016.94 1016.94 1016.95 1016.98 1017.05 1017.14 1017.22 1017.30 1017.36
1011.25 1011.14 1010.75 1010.16 1009.47 1008.79 1008.22 1007.82 1007.65 1007.68 1007.88 1008.17 1008.49 1008.78 1008.99 1009.13 1009.21 1009.29 1009.41 1009.62 1009.94 1010.37 1010.88 1011.42 1011.94 1012.40 1012.80 1013.13 1013.43 1013.73 1014.08 1014.48 1014.94 1015.44 1015.94 1016.39 1016.76 1017.02 1017.18 1017.25 1017.26 1017.25 1017.24 1017.26 1017.31 1017.37 1017.44 1017.50 1017.56
1010.79 1010.54 1010.04 1009.39 1008.70 1008.07 1007.58 1007.28 1007.20 1007.30 1007.54 1007.85 1008.16 1008.43 1008.62 1008.75 1008.84 1008.95 1009.11 1009.36 1009.73 1010.20 1010.73 1011.30 1011.84 1012.33 1012.75 1013.11 1013.45 1013.78 1014.15 1014.58 1015.06 1015.57 1016.08 1016.55 1016.93 1017.22 1017.40 1017.49 1017.52 1017.52 1017.51 1017.53 1017.57 1017.62 1017.68 1017.73 1017.78
1010.45 1010.10 1009.54 1008.87 1008.19 1007.59 1007.15 1006.90 1006.84 1006.95 1007.18 1007.47 1007.75 1008.00 1008.19 1008.34 1008.46 1008.61 1008.82 1009.12 1009.52 1010.01 1010.57 1011.15 1011.71 1012.23 1012.68 1013.09 1013.47 1013.84 1014.24 1014.67 1015.15 1015.65 1016.15 1016.60 1016.99 1017.29 1017.50 1017.62 1017.69 1017.73 1017.76 1017.79 1017.84 1017.89 1017.95 1018.01 1018.05
1010.31 1009.91 1009.33 1008.66 1008.00 1007.43 1007.00 1006.74 1006.66 1006.72 1006.90 1007.13 1007.38 1007.61 1007.81 1007.99 1008.16 1008.36 1008.61 1008.94 1009.35 1009.84 1010.38 1010.95 1011.52 1012.07 1012.57 1013.03 1013.46 1013.87 1014.30 1014.73 1015.19 1015.66 1016.11 1016.54 1016.92 1017.23 1017.47 1017.65 1017.79 1017.89 1017.97 1018.05 1018.13 1018.21 1018.28 1018.33 1018.38
1010.39 1009.98 1009.42 1008.78 1008.15 1007.59 1007.15 1006.85 1006.70 1006.68 1006.76 1006.92 1007.12 1007.34 1007.57 1007.79 1008.01 1008.24 1008.51 1008.83 1009.21 1009.65 1010.14 1010.68 1011.24 1011.80 1012.35 1012.87 1013.37 1013.84 1014.30 1014.73 1015.16 1015.58 1015.99 1016.37 1016.73 1017.05 1017.34 1017.59 1017.80 1017.99 1018.15 1018.30 1018.43 1018.54 1018.63 1018.69 1018.74
1010.63 1010.26 1009.75 1009.17 1008.59 1008.04 1007.58 1007.22 1006.97 1006.83 1006.81 1006.89 1007.04 1007.25 1007.49 1007.75 1008.01 1008.26 1008.51 1008.78 1009.07 1009.41 1009.81 1010.27 1010.79 1011.37 1011.97 1012.57 1013.15 1013.70 1014.21 1014.66 1015.07 1015.44 1015.79 1016.13 1016.47 1016.80 1017.13 1017.45 1017.76 1018.04 1018.30 1018.52 1018.71 1018.86 1018.97 1019.05 1019.10
1010.95 1010.64 1010.22 1009.73 1009.21 1008.70 1008.21 1007.78 1007.43 1007.18 1007.05 1007.03 1007.13 1007.33 1007.58 1007.86 1008.13 1008.37 1008.56 1008.72 1008.88 1009.08 1009.34 1009.69 1010.16 1010.74 1011.40 1012.10 1012.79 1013.44 1014.02 1014.52 1014.92 1015.27 1015.58 1015.87 1016.18 1016.52 1016.90 1017.29 1017.69 1018.07 1018.42 1018.71 1018.95 1019.14 1019.28 1019.37 1019.43
1011.22 1011.00 1010.70 1010.33 1009.91 1009.45 1008.97 1008.48 1008.03 1007.66 1007.41 1007.31 1007.35 1007.51 1007.77 1008.05 1008.31 1008.50 1008.60 1008.63 1008.62 1008.63 1008.72 1008.96 1009.37 1009.94 1010.66 1011.47 1012.29 1013.07 1013.76 1014.32 1014.76 1015.10 1015.38 1015.64 1015.94 1016.29 1016.69 1017.15 1017.62 1018.09 1018.51 1018.87 1019.15 1019.37 1019.52 1019.62 1019.68
1011.35 1011.25 1011.09 1010.88 1010.60 1010.22 1009.75 1009.23 1008.69 1008.21 1007.84 1007.64 1007.61 1007.74 1007.97 1008.24 1008.46 1008.58 1008.58 1008.45 1008.26 1008.09 1008.01 1008.11 1008.46 1009.03 1009.82 1010.74 1011.71 1012.64 1013.46 1014.11 1014.61 1014.96 1015.24 1015.49 1015.77 1016.12 1016.55 1017.05 1017.59 1018.11 1018.59 1018.99 1019.30 1019.52 1019.68 1019.78 1019.86
1011.27 1011.32 1011.35 1011.32 1011.20 1010.92 1010.50 1009.96 1009.35 1008.75 1008.27 1007.96 1007.84 1007.91 1008.11 1008.34 1008.53 1008.58 1008.47 1008.21 1007.85 1007.51 1007.27 1007.26 1007.54 1008.13 1008.98 1010.01 1011.13 1012.21 1013.16 1013.93 1014.49 1014.89 1015.17 1015.42 1015.70 1016.05 1016.49 1017.02 1017.59 1018.15 1018.66 1019.07 1019.39 1019.62 1019.76 1019.86 1019.95
1011.00 1011.22 1011.46 1011.64 1011.69 1011.55 1011.18 1010.62 1009.94 1009.24 1008.63 1008.19 1007.98 1007.97 1008.12 1008.32 1008.47 1008.47 1008.29 1007.92 1007.45 1006.98 1006.63 1006.53 1006.76 1007.35 1008.26 1009.39 1010.63 1011.84 1012.92 1013.79 1014.43 1014.88 1015.18 1015.43 1015.71 1016.06 1016.50 1017.04 1017.62 1018.19 1018.71 1019.12 1019.43 1019.64 1019.78 1019.87 1019.96
1010.59 1011.00 1011.47 1011.87 1012.11 1012.09 1011.78 1011.21 1010.46 1009.64 1008.89 1008.32 1007.99 1007.90 1007.99 1008.16 1008.29 1008.27 1008.06 1007.66 1007.13 1006.59 1006.18 1006.03 1006.23 1006.83 1007.77 1008.96 1010.29 1011.60 1012.77 1013.72 1014.42 1014.90 1015.23 1015.49 1015.75 1016.10 1016.54 1017.06 1017.64 1018.21 1018.72 1019.13 1019.42 1019.61 1019.73 1019.81 1019.90
1010.15 1010.76 1011.45 1012.06 1012.47 1012.57 1012.31 1011.72 1010.89 1009.95 1009.05 1008.34 1007.89 1007.70 1007.74 1007.89 1008.02 1008.04 1007.86 1007.48 1006.97 1006.43 1006.01 1005.84 1006.03 1006.62 1007.57 1008.79 1010.14 1011.49 1012.71 1013.70 1014.43 1014.94 1015.27 1015.53 1015.79 1016.12 1016.55 1017.07 1017.63 1018.19 1018.69 1019.08 1019.36 1019.53 1019.63 1019.69 1019.78
1009.77 1010.58 1011.47 1012.27 1012.82 1013.01 1012.78 1012.16 1011.23 1010.17 1009.13 1008.28 1007.70 1007.43 1007.41 1007.56 1007.74 1007.81 1007.72 1007.43 1006.99 1006.52 1006.14 1005.99 1006.18 1006.75 1007.67 1008.86 1010.19 1011.52 1012.72 1013.71 1014.44 1014.94 1015.27 1015.52 1015.77 1016.09 1016.50 1017.00 1017.56 1018.10 1018.59 1018.97 1019.24 1019.40 1019.48 1019.54 1019.61
1009.53 1010.51 1011.56 1012.50 1013.15 1013.39 1013.16 1012.49 1011.48 1010.30 1009.14 1008.16 1007.48 1007.13 1007.09 1007.25 1007.48 1007.66 1007.68 1007.52 1007.22 1006.85 1006.56 1006.45 1006.64 1007.18 1008.04 1009.16 1010.41 1011.66 1012.80 1013.73 1014.42 1014.89 1015.20 1015.44 1015.68 1015.98 1016.38 1016.87 1017.41 1017.95 1018.43 1018.81 1019.07 1019.23 1019.30 1019.35 1019.41
1009.44 1010.54 1011.70 1012.71 1013.41 1013.66 1013.41 1012.69 1011.61 1010.34 1009.08 1008.01 1007.26 1006.87 1006.81 1007.00 1007.31 1007.59 1007.76 1007.76 1007.61 1007.38 1007.18 1007.12 1007.32 1007.82 1008.60 1009.60 1010.73 1011.86 1012.89 1013.74 1014.36 1014.79 1015.08 1015.30 1015.52 1015.82 1016.20 1016.68 1017.22 1017.75 1018.23 1018.61 1018.88 1019.03 1019.11 1019.15 1019.20
1009.48 1010.64 1011.83 1012.85 1013.53 1013.75 1013.47 1012.70 1011.57 1010.26 1008.96 1007.86 1007.07 1006.67 1006.63 1006.86 1007.24 1007.64 1007.94 1008.09 1008.09 1008.00 1007.90 1007.91 1008.11 1008.56 1009.24 1010.12 1011.11 1012.10 1013.00 1013.74 1014.29 1014.67 1014.93 1015.13 1015.35 1015.64 1016.02 1016.49 1017.01 1017.54 1018.02 1018.40 1018.68 1018.85 1018.93 1018.97 1019.01
1009.58 1010.73 1011.87 1012.82 1013.43 1013.59 1013.25 1012.46 1011.33 1010.03 1008.76 1007.68 1006.93 1006.55 1006.54 1006.82 1007.27 1007.76 1008.18 1008.46 1008.60 1008.63 1008.63 1008.69 1008.90 1009.29 1009.89 1010.64 1011.48 1012.33 1013.10 1013.74 1014.22 1014.56 1014.80 1015.00 1015.21 1015.50 1015.87 1016.33 1016.84 1017.36 1017.83 1018.22 1018.50 1018.68 1018.77 1018.81 1018.85
1009.68 1010.73 1011.73 1012.54 1013.03 1013.09 1012.71 1011.93 1010.85 1009.62 1008.45 1007.47 1006.80 1006.49 1006.54 1006.87 1007.37 1007.91 1008.41 1008.79 1009.03 1009.16 1009.24 1009.35 1009.57 1009.93 1010.44 1011.09 1011.81 1012.53 1013.19 1013.75 1014.17 1014.48 1014.72 1014.92 1015.14 1015.43 1015.80 1016.25 1016.74 1017.23 1017.69 1018.07 1018.35 1018.54 1018.64 1018.68 1018.71
1009.72 1010.60 1011.40 1012.01 1012.33 1012.29 1011.86 1011.11 1010.12 1009.04 1008.02 1007.19 1006.65 1006.45 1006.56 1006.93 1007.45 1008.03 1008.56 1008.99 1009.30 1009.51 1009.66 1009.82 1010.06 1010.40 1010.87 1011.43 1012.06 1012.69 1013.27 1013.76 1014.15 1014.45 1014.69 1014.90 1015.14 1015.44 1015.80 1016.22 1016.69 1017.15 1017.58 1017.94 1018.21 1018.39 1018.49 1018.54 1018.57
Thickness
5814 5811 5807 5796 5776 5758 5758 5772 5784 5785 5788 5797 5801 5795 5787 5780 5773 5771 5791 5799 5795 5790 5785 5782 5779 5777 5775 5773 5772 5771 5771 5770 5769 5768 5767 5767 5766 5765 5764 5764 5763 5762 5761 5760 5760 5759 5758 5757 5756
5814 5809 5799 5784 5761 5746 5757 5777 5782 5788 5796 5801 5799 5795 5787 5785 5790 5788 5790 5795 5794 5789 5784 5781 5778 5776 5773 5771 5770 5769 5769 5768 5767 5766 5765 5765 5764 5763 5762 5762 5761 5760 5759 5758 5758 5757 5756 5755 5754
5813 5808 5787 5770 5757 5751 5765 5784 5789 5797 5802 5799 5793 5793 5788 5784 5789 5789 5793 5794 5790 5786 5782 5779 5776 5774 5771 5769 5768 5767 5767 5766 5765 5764 5763 5762 5761 5761 5760 5759 5759 5758 5757 5756 5755 5755 5754 5753 5752
5808 5793 5780 5762 5758 5769 5780 5790 5795 5794 5797 5798 5792 5784 5787 5795 5794 5794 5794 5791 5786 5782 5779 5777 5774 5771 5769 5767 5766 5765 5765 5763 5763 5761 5760 5760 5759 5758 5757 5757 5756 5755 5755 5754 5753 5752 5751 5751 5750
5801 5782 5764 5753 5761 5778 5792 5799 5798 5791 5790 5792 5789 5779 5780 5792 5797 5795 5791 5788 5783 5779 5776 5774 5772 5769 5767 5766 5764 5763 5762 5761 5760 5759 5758 5757 5756 5755 5755 5754 5753 5752 5752 5750 5750 5749 5749 5748 5748
5784 5771 5751 5747 5762 5781 5794 5801 5798 5792 5789 5790 5786 5777 5777 5788 5790 5788 5787 5784 5781 5777 5774 5771 5769 5767 5765 5763 5762 5761 5760 5759 5758 5757 5755 5754 5753 5752 5752 5751 5750 5749 5748 5747 5747 5746 5746 5746 5745
5778 5763 5754 5757 5762 5774 5791 5800 5795 5790 5785 5787 5789 5774 5774 5781 5784 5784 5782 5778 5775 5773 5771 5768 5766 5764 5762 5761 5760 5759 5758 5756 5755 5754 5753 5752 5750 5749 5749 5748 5747 5746 5745 5744 5744 5743 5743 5743 5743
5786 5765 5758 5757 5762 5772 5793 5797 5797 5792 5787 5795 5791 5775 5771 5778 5781 5779 5775 5771 5769 5767 5767 5765 5763 5761 5760 5758 5757 5756 5755 5754 5753 5752 5750 5749 5748 5747 5746 5745 5744 5744 5743 5742 5741 5741 5741 5741 5741
5789 5758 5748 5760 5767 5778 5792 5790 5792 5799 5792 5790 5790 5786 5785 5783 5779 5772 5766 5763 5761 5761 5761 5761 5760 5758 5757 5755 5755 5754 5753 5752 5751 5749 5748 5747 5745 5744 5743 5742 5742 5741 5740 5739 5739 5738 5738 5738 5738
5777 5753 5762 5778 5784 5786 5790 5788 5787 5787 5781 5780 5782 5784 5784 5779 5773 5767 5763 5760 5758 5757 5757 5757 5756 5755 5754 5753 5752 5752 5751 5750 5749 5747 5746 5744 5743 5741 5740 5739 5739 5738 5738 5737 5736 5736 5735 5735 5735
5777 5768 5779 5788 5793 5792 5787 5787 5790 5781 5773 5780 5781 5779 5777 5772 5767 5764 5761 5759 5758 5756 5755 5754 5753 5752 5751 5750 5749 5748 5748 5747 5746 5744 5743 5741 5740 5738 5737 5736 5736 5735 5735 5734 5733 5733 5732 5732 5732
5778 5782 5787 5792 5797 5793 5789 5788 5785 5782 5786 5795 5792 5785 5777 5769 5764 5761 5758 5757 5755 5753 5752 5751 5751 5749 5748 5747 5747 5745 5745 5744 5743 5742 5741 5739 5737 5735 5734 5733 5732 5732 5731 5731 5730 5730 5730 5729 5729
5779 5784 5792 5796 5795 5794 5792 5786 5784 5784 5793 5794 5789 5780 5774 5769 5765 5761 5759 5755 5753 5750 5749 5749 5748 5747 5746 5745 5744 5743 5742 5741 5740 5739 5738 5737 5735 5733 5731 5730 5729 5729 5728 5728 5728 5727 5727 5726 5726
5784 5786 5788 5792 5793 5794 5787 5785 5782 5785 5791 5786 5781 5775 5773 5768 5763 5758 5754 5751 5750 5748 5746 5746 5745 5744 5742 5741 5741 5741 5740 5739 5737 5736 5736 5735 5733 5731 5729 5728 5727 5726 5726 5726 5725 5725 5724 5724 5724
5786 5779 5780 5786 5789 5790 5785 5773 5778 5787 5786 5779 5775 5772 5769 5766 5761 5757 5755 5751 5749 5746 5744 5742 5741 5741 5739 5738 5738 5737 5737 5736 5735 5734 5733 5732 5731 5729 5728 5726 5725 5725 5724 5723 5723 5723 5722 5721 5721
5774 5765 5758 5775 5783 5785 5776 5760 5778 5784 5780 5772 5771 5769 5766 5762 5759 5756 5752 5748 5746 5743 5741 5739 5739 5737 5736 5735 5735 5734 5733 5733 5732 5731 5731 5730 5729 5728 5727 5725 5724 5724 5723 5722 5721 5721 5719 5718 5718
5750 5744 5749 5763 5779 5779 5770 5761 5775 5779 5776 5770 5768 5766 5763 5759 5756 5753 5751 5748 5744 5741 5738 5737 5737 5735 5734 5733 5731 5730 5730 5729 5729 5729 5729 5728 5727 5726 5725 5724 5724 5723 5721 5721 5720 5718 5718 5716 5715
5738 5742 5746 5752 5770 5770 5762 5761 5771 5775 5774 5769 5766 5763 5760 5757 5756 5754 5751 5748 5744 5741 5738 5735 5735 5733 5731 5729 5727 5726 5726 5726 5726 5727 5727 5727 5726 5725 5723 5723 5722 5721 5720 5719 5718 5717 5716 5715 5714
5749 5745 5741 5754 5771 5765 5759 5760 5765 5770 5769 5765 5762 5760 5757 5756 5755 5752 5748 5744 5741 5738 5735 5733 5731 5730 5729 5727 5725 5723 5722 5723 5723 5724 5726 5726 5725 5723 5722 5722 5721 5720 5719 5718 5717 5716 5714 5712 5712
5746 5740 5742 5755 5768 5764 5756 5757 5765 5767 5766 5766 5762 5759 5757 5753 5748 5747 5744 5741 5739 5736 5733 5731 5730 5730 5730 5728 5726 5724 5722 5721 5722 5723 5723 5724 5723 5722 5722 5721 5720 5720 5718 5717 5716 5716 5713 5711 5711
5744 5740 5743 5746 5756 5758 5752 5748 5755 5762 5764 5763 5763 5759 5756 5753 5748 5745 5741 5737 5735 5734 5733 5732 5730 5728 5728 5727 5724 5722 5719 5718 5718 5719 5720 5721 5721 5721 5721 5720 5720 5719 5718 5716 5716 5715 5713 5710 5709
5736 5754 5753 5750 5739 5729 5739 5720 5743 5751 5753 5756 5757 5755 5753 5752 5748 5744 5741 5737 5735 5734 5732 5731 5729 5727 5726 5725 5723 5721 5718 5716 5717 5718 5718 5719 5719 5720 5720 5719 5719 5719 5718 5717 5716 5715 5714 5712 5708
5749 5759 5752 5746 5735 5726 5729 5718 5731 5746 5745 5752 5756 5756 5755 5753 5749 5745 5742 5739 5737 5735 5732 5730 5728 5725 5725 5724 5723 5721 5719 5718 5716 5716 5716 5716 5717 5718 5718 5718 5718 5718 5717 5716 5716 5715 5714 5713 5710
5759 5749 5738 5726 5719 5710 5724 5715 5722 5737 5748 5755 5759 5759 5757 5753 5749 5745 5742 5739 5736 5734 5732 5729 5726 5724 5724 5723 5722 5720 5718 5717 5715 5714 5713 5713 5714 5715 5716 5717 5717 5716 5716 5715 5715 5714 5713 5712 5711
5748 5725 5703 5702 5693 5700 5720 5716 5725 5754 5760 5762 5762 5761 5759 5755 5750 5744 5740 5737 5735 5733 5731 5728 5725 5723 5723 5722 5721 5720 5719 5718 5716 5715 5713 5712 5712 5713 5715 5715 5715 5715 5715 5714 5714 5713 5712 5711 5710
5738 5727 5701 5692 5689 5699 5714 5712 5737 5761 5766 5767 5766 5764 5760 5755 5752 5747 5744 5740 5737 5734 5732 5729 5726 5724 5723 5723 5721 5720 5719 5718 5717 5716 5715 5714 5714 5714 5714 5714 5714 5714 5713 5713 5712 5711 5709 5709 5708
5733 5723 5727 5704 5700 5695 5704 5720 5743 5761 5761 5762 5762 5761 5759 5757 5753 5750 5747 5743 5740 5737 5734 5731 5728 5725 5724 5723 5721 5720 5719 5718 5716 5716 5715 5714 5714 5714 5714 5714 5713 5712 5712 5711 5710 5708 5707 5706 5705
5742 5728 5709 5698 5688 5687 5703 5713 5725 5749 5752 5756 5757 5757 5759 5758 5755 5752 5749 5746 5743 5740 5736 5733 5730 5727 5725 5724 5722 5721 5720 5719 5717 5716 5715 5714 5714 5715 5713 5712 5712 5711 5710 5709 5707 5706 5705 5704 5702
5728 5720 5708 5695 5695 5686 5687 5708 5746 5750 5755 5754 5756 5759 5759 5758 5757 5754 5751 5748 5745 5740 5737 5733 5730 5727 5725 5724 5723 5722 5720 5719 5718 5717 5716 5715 5714 5714 5713 5712 5711 5710 5708 5707 5705 5704 5703 5701 5699
5731 5721 5707 5697 5694 5690 5689 5710 5758 5757 5758 5758 5758 5759 5759 5759 5758 5756 5753 5748 5745 5741 5737 5734 5731 5729 5727 5726 5723 5722 5720 5719 5718 5717 5716 5715 5714 5714 5713 5712 5710 5709 5707 5706 5704 5702 5701 5699 5697